Weather History for KHRL - January, 2013

Change the Weather History Date:

Wednesday, January 9, 2013

  Actual Average Record
Temperature  
Mean Temperature 62 °F 60 °F  
Max Temperature 69 °F 70 °F 89 °F (1914)
Min Temperature 55 °F 49 °F 25 °F (2010)
Degree Days  
Heating Degree Days 3 7  
Month to date heating degree days 94 63  
Since 1 July heating degree days 207 311  
Cooling Degree Days 0 2  
Month to date cooling degree days 1 18  
Year to date cooling degree days 1 18  
Growing Degree Days 12 (Base 50)    
Moisture  
Dew Point 59 °F    
Average Humidity 89    
Maximum Humidity 93    
Minimum Humidity 84    
Precipitation  
Precipitation 0.85 in 0.03 in 0.92 in (1981)
Month to date precipitation 2.38 0.23  
Year to date precipitation 2.38 0.23  
Sea Level Pressure  
Sea Level Pressure 29.94 in    
Wind  
Wind Speed 8 mph (NW)    
Max Wind Speed 20 mph    
Max Gust Speed 24 mph    
Visibility 9 miles    
Events Rain , Thunderstorm    
T = Trace of Precipitation, MM = Missing Value Source: NWS Daily Summary

Daily Weather History Graph

Daily Weather History Graph

Search for Another Location

Airport or City:

Trip Planner

Search our weather history database for the weather conditions in past years. The results will help you decide how hot, cold, wet, or windy it might be!

Date:

Astronomy

Jan. 09, 2013 Rise Set
Actual Time 7:19 AM CST 5:56 PM CST
Civil Twilight 6:54 AM CST 6:21 PM CST
Nautical Twilight 6:26 AM CST 6:49 PM CST
Astronomical Twilight 5:58 AM CST 7:17 PM CST
Moon 5:00 AM CST (1/9) 3:59 PM CST (1/9)
Length of Visible Light 11h 26m
Length of Day
10h 36m
Waning Crescent, 6% of the Moon is Illuminated
Jan 9
Waning Crescent
Jan 11
New
Jan 18
First Quarter
Jan 26
Full
Feb 3
Last Quarter

Hourly Weather History & Observations

Time (CST) Temp. Dew Point Humidity Pressure Visibility Wind Dir Wind Speed Gust Speed Precip Events Conditions
12:52 AM 69.8 °F 66.2 °F 88% 29.80 in 9.0 mi Calm Calm - N/A   Mostly Cloudy
1:52 AM 68.0 °F 66.9 °F 96% 29.81 in 6.0 mi NW 6.9 mph - N/A   Overcast
2:11 AM 69.8 °F 66.2 °F 88% 29.82 in 6.0 mi WNW 6.9 mph - N/A   Overcast
2:31 AM 69.8 °F 66.2 °F 88% 29.84 in 7.0 mi NW 5.8 mph - N/A   Overcast
2:52 AM 69.1 °F 66.9 °F 93% 29.84 in 7.0 mi NW 6.9 mph - N/A   Overcast
3:02 AM 69.8 °F 66.2 °F 88% 29.84 in 7.0 mi WNW 5.8 mph - 0.00 in Rain Light Rain
3:31 AM 66.2 °F 64.4 °F 94% 29.83 in 7.0 mi NW 8.1 mph - 0.00 in   Overcast
3:41 AM 66.2 °F 64.4 °F 94% 29.83 in 6.0 mi NW 8.1 mph - 0.00 in   Overcast
3:52 AM 66.9 °F 64.9 °F 93% 29.84 in 6.0 mi WNW 5.8 mph - 0.00 in   Overcast
4:52 AM 66.9 °F 64.9 °F 93% 29.84 in 5.0 mi Calm Calm - N/A   Overcast
5:08 AM 66.2 °F 64.4 °F 94% 29.84 in 6.0 mi WNW 9.2 mph - N/A   Overcast
5:21 AM 64.4 °F 62.6 °F 94% 29.85 in 9.0 mi WNW 11.5 mph - N/A   Overcast
5:52 AM 61.0 °F 59.0 °F 93% 29.86 in 10.0 mi West 11.5 mph - 0.01 in Rain Light Rain
6:26 AM 60.8 °F 59.0 °F 94% 29.89 in 10.0 mi West 12.7 mph - 0.02 in Rain Light Rain
6:52 AM 60.8 °F 57.2 °F 88% 29.90 in 10.0 mi WNW 15.0 mph - N/A Rain Light Rain
7:08 AM 59.0 °F 57.2 °F 94% 29.88 in 10.0 mi NW 12.7 mph - 0.00 in Rain Light Rain
7:52 AM 59.0 °F 57.0 °F 93% 29.92 in 10.0 mi NW 12.7 mph - 0.00 in Rain Light Rain
8:52 AM 59.0 °F 57.9 °F 96% 29.92 in 4.0 mi NNW 11.5 mph - 0.12 in Rain Rain
9:52 AM 60.1 °F 57.9 °F 93% 29.97 in 7.0 mi West 9.2 mph - 0.03 in Rain Rain
9:59 AM 60.8 °F 57.2 °F 88% 30.00 in 7.0 mi WSW 8.1 mph - 0.01 in Rain Light Rain
10:27 AM 59.0 °F 57.2 °F 94% 29.97 in 9.0 mi NW 6.9 mph - 0.05 in Rain Light Rain
10:52 AM 60.8 °F 59.0 °F 94% 29.95 in 10.0 mi WNW 5.8 mph - N/A   Mostly Cloudy
11:01 AM 60.8 °F 57.2 °F 88% 29.99 in 10.0 mi West 13.8 mph - N/A   Overcast
11:41 AM 60.8 °F 59.0 °F 94% 29.93 in 8.0 mi WNW 8.1 mph - 0.01 in Rain Light Rain
11:52 AM 62.1 °F 61.0 °F 96% 29.94 in 10.0 mi WNW 11.5 mph - 0.01 in Rain Light Rain
12:02 PM 62.6 °F 60.8 °F 94% 29.94 in 10.0 mi West 10.4 mph - N/A   Mostly Cloudy
12:52 PM 61.0 °F 57.9 °F 90% 29.93 in 10.0 mi WNW 13.8 mph - 0.01 in Rain Light Rain
1:52 PM 61.0 °F 57.9 °F 90% 29.91 in 10.0 mi WNW 10.4 mph - 0.01 in Rain Light Rain
2:50 PM 62.6 °F 57.2 °F 82% 29.93 in 10.0 mi NW 4.6 mph - 0.00 in   Overcast
2:52 PM 62.1 °F 57.9 °F 86% 29.93 in 10.0 mi WNW 4.6 mph - 0.00 in   Overcast
3:52 PM 63.0 °F 57.9 °F 84% 29.94 in 10.0 mi North 3.5 mph - N/A   Overcast
4:43 PM 62.6 °F 57.2 °F 82% 29.94 in 10.0 mi NE 6.9 mph - 0.00 in Rain Light Rain
4:52 PM 64.0 °F 59.0 °F 84% 29.96 in 10.0 mi ENE 5.8 mph - 0.00 in   Overcast
5:01 PM 64.4 °F 59.0 °F 83% 29.96 in 10.0 mi ENE 5.8 mph - N/A   Overcast
5:38 PM 62.6 °F 57.2 °F 82% 29.97 in 10.0 mi NNE 5.8 mph - N/A   Mostly Cloudy
5:52 PM 62.1 °F 57.9 °F 86% 29.97 in 10.0 mi NNE 6.9 mph - N/A   Scattered Clouds
6:52 PM 62.1 °F 59.0 °F 90% 30.00 in 10.0 mi NE 3.5 mph - N/A   Overcast
7:36 PM 62.6 °F 59.0 °F 88% 30.04 in 2.0 mi WNW 3.5 mph - 0.10 in Rain , Thunderstorm Light Thunderstorms and Rain
7:52 PM 61.0 °F 59.0 °F 93% 30.04 in 6.0 mi Calm Calm - 0.26 in Rain , Thunderstorm Thunderstorms and Rain
8:52 PM 55.9 °F 51.1 °F 84% 30.01 in 10.0 mi ENE 10.4 mph - 0.24 in Rain , Thunderstorm Light Thunderstorms and Rain
9:38 PM 55.4 °F 51.8 °F 88% 30.04 in 10.0 mi ENE 3.5 mph - N/A Thunderstorm Mostly Cloudy
9:52 PM 55.9 °F 52.0 °F 87% 30.04 in 10.0 mi East 5.8 mph - 0.04 in Rain , Thunderstorm Light Thunderstorms and Rain
10:17 PM 55.4 °F 51.8 °F 88% 30.05 in 10.0 mi SE 5.8 mph - 0.00 in   Mostly Cloudy
10:25 PM 55.4 °F 51.8 °F 88% 30.06 in 10.0 mi SSE 6.9 mph - 0.00 in Thunderstorm Mostly Cloudy
10:40 PM 55.4 °F 53.6 °F 94% 30.05 in 10.0 mi East 3.5 mph - 0.00 in Rain Light Rain
10:52 PM 55.9 °F 53.1 °F 90% 30.07 in 10.0 mi SSE 3.5 mph - 0.00 in Rain Light Rain
11:03 PM 55.4 °F 53.6 °F 94% 30.09 in 10.0 mi South 5.8 mph - 0.00 in Rain , Thunderstorm Light Rain
11:36 PM 55.4 °F 53.6 °F 94% 30.09 in 10.0 mi SSE 5.8 mph - 0.01 in Rain Light Rain
11:52 PM 55.9 °F 54.0 °F 93% 30.06 in 10.0 mi ESE 3.5 mph - 0.02 in Rain Light Rain